Regional Weather Roundup
Issued by NWS

Home | Current Version | Previous Version | Graphics & Text | Print | Product List | Glossary On
Versions: 1 2 3 4 5 6 7 8 9 10 11 12 13 14 15 16 17 18 19 20 21 22 23 24 25 26 27 28 29 30 31 32 33 34 35 36 37 38 39 40 41 42 43 44 45 46 47 48 49 50
000
ASUS43 KTOP 280559
RWRKS

WEATHER ROUNDUP FOR KANSAS
NATIONAL WEATHER SERVICE GOODLAND KS
100 AM CDT FRI JUL 28 2017

NOTE:  "FAIR" INDICATES FEW OR NO CLOUDS BELOW 12,000 FEET WITH NO
SIGNIFICANT WEATHER AND/OR OBSTRUCTIONS TO VISIBILITY.

KSZ001>006-013>018-027>032-041>047-280700-
NORTHWEST KANSAS

CITY           SKY/WX    TMP DP  RH WIND       PRES   REMARKS
GOODLAND       PTCLDY    65  63  93 S7        30.09F
6HR MIN TEMP:  65; 6HR MAX TEMP:  83;

HAYS           CLEAR     68  63  84 NE7       30.04F
HILL CITY      CLOUDY    68  62  81 E3        30.06F
6HR MIN TEMP:  67; 6HR MAX TEMP:  87;

RUSSELL        CLEAR     69  64  84 NE7       30.02F
6HR MIN TEMP:  69; 6HR MAX TEMP:  86;

$$

KSZ061>065-074>080-084>089-280700-
SOUTHWEST KANSAS

CITY           SKY/WX    TMP DP  RH WIND       PRES   REMARKS
DODGE CITY     CLOUDY    70  66  87 E3        30.05S
6HR MIN TEMP:  70; 6HR MAX TEMP:  82;

ELKHART          N/A    N/A N/A N/A MISG        N/A
GARDEN CITY    PTCLDY    72  68  87 CALM      30.06F
6HR MIN TEMP:  70; 6HR MAX TEMP:  83;

GREAT BEND     CLEAR     75  65  70 NE12      30.02F
LIBERAL        CLOUDY    71  69  93 N5        30.07S
$$

KSZ066>073-081>083-090>101-280700-
SOUTHEAST KANSAS

CITY           SKY/WX    TMP DP  RH WIND       PRES   REMARKS
CHANUTE        CLOUDY    79  75  87 N7        29.94S
6HR MIN TEMP:  79; 6HR MAX TEMP:  84; 6HR PCP:  0.01;

COFFEYVILLE    CLOUDY    78  76  93 NE6       29.91S
6HR MIN TEMP:  77; 6HR MAX TEMP:  85; 6HR PCP:  0.01;

HUTCHINSON     CLEAR     74  67  78 N8        29.98F
6HR MIN TEMP:  74; 6HR MAX TEMP:  83;

MEDICINE LODGE   N/A     74  68  81 CALM      29.98R
NEWTON         CLOUDY    72  69  90 NE5       29.99F
PARSONS        CLOUDY    77  74  90 VRB3      29.94R
6HR MIN TEMP:  76; 6HR MAX TEMP:  85; 6HR PCP:  2.40;

WICHITA INTL   MOCLDY    78  70  76 NE9       29.96F
6HR MIN TEMP:  78; 6HR MAX TEMP:  84;

WICHITA JABRA  CLOUDY    74  70  87 N8        29.96F
6HR MIN TEMP:  74; 6HR MAX TEMP:  83;

WINFIELD       CLEAR     78  72  81 N7        29.95F
6HR MIN TEMP:  78; 6HR MAX TEMP:  86;

$$

KSZ007>012-019>026-033>040-048>060-102>105-280700-
NORTHEAST KANSAS

CITY           SKY/WX    TMP DP  RH WIND       PRES   REMARKS
CONCORDIA      CLOUDY    68  66  93 CALM      30.02F
6HR MIN TEMP:  68; 6HR MAX TEMP:  83;

EMPORIA        MOCLDY    75  70  84 N6        29.97S
6HR MIN TEMP:  74; 6HR MAX TEMP:  84;

LAWRENCE       CLEAR     75  70  84 N6        29.95F
6HR MIN TEMP:  74; 6HR MAX TEMP:  83;

MANHATTAN      CLOUDY    73  66  78 N3        29.99F
6HR MIN TEMP:  73; 6HR MAX TEMP:  87;

OLATHE IND     CLEAR     73  71  93 N7        29.96F
6HR MIN TEMP:  73; 6HR MAX TEMP:  82;

OLATHE EXE     CLEAR     75  72  90 N5        29.96S
6HR MIN TEMP:  74; 6HR MAX TEMP:  83;

SALINA         MOCLDY    77  66  68 NE9       30.00F
6HR MIN TEMP:  77; 6HR MAX TEMP:  87;

TOPEKA BILLARD PTCLDY    74  69  85 VRB3      29.96F
6HR MIN TEMP:  74; 6HR MAX TEMP:  85;

TOPEKA FORBES  PTCLDY    75  70  84 N8        29.97F
6HR MIN TEMP:  75; 6HR MAX TEMP:  85;

$$




USA.gov is the U.S. government's official web portal to all federal, state and local government web resources and services.